Wind_Speed
12 8 8 10 7 8 13 14 13 14 17 17 16 18 18 18 18 17 16 16 16 14 13 13 12 11 12 11 10 10 10 10 9 9 10 8 6 7 5 4 7 6 5 6 7 7 7 7 8 10 11 10 11 10 8 9 9 8 9 12 16 18 17 16 13 11 14 19 20 19 17 19 21 20 19 20 19 15 14 19 23 23 22 20 18
10 10 11 14 14 10 9 10 12 13 16 17 17 18 19 18 18 16 16 16 15 14 14 13 11 11 11 11 11 11 10 9 9 9 8 6 7 7 4 4 7 7 5 6 7 7 7 7 9 10 11 12 12 9 7 7 8 10 9 9 14 14 13 16 17 13 14 15 17 19 18 18 20 21 20 21 21 18 17 20 24 23 22 20 18
11 12 15 19 21 16 12 14 15 14 16 17 17 17 18 17 16 15 15 16 14 13 13 12 11 11 10 10 11 10 10 10 8 8 7 7 7 5 3 6 9 6 5 7 8 7 8 8 9 11 12 12 10 8 8 6 5 8 6 7 9 3 4 18 21 16 15 13 15 20 19 17 19 22 22 21 21 20 18 21 24 23 22 20 19
15 17 20 24 25 20 18 19 18 16 16 17 16 16 16 16 16 15 15 15 14 13 12 11 10 10 10 10 10 10 10 10 8 7 8 8 7 5 5 9 8 4 5 10 10 8 9 9 9 11 12 11 7 7 7 4 2 7 5 3 4 5 6 14 18 17 17 14 14 19 19 17 17 22 22 20 20 20 18 20 23 22 20 20 18
16 20 23 27 27 25 23 22 20 17 16 16 17 16 15 15 15 15 15 16 14 13 12 10 10 10 9 9 9 9 10 9 8 8 8 8 8 7 8 8 5 4 8 11 11 9 9 10 10 10 10 9 7 7 6 3 1 7 5 3 4 1 2 4 7 14 20 18 15 16 19 18 15 19 23 20 20 20 17 19 22 22 20 21 20
14 20 24 27 27 26 26 25 21 17 15 17 18 17 15 15 14 14 15 16 15 14 12 10 9 9 9 9 9 9 10 9 9 9 9 9 9 9 9 7 5 7 9 9 9 9 9 10 11 9 7 7 6 4 4 4 2 4 4 4 5 6 5 3 2 7 15 18 15 13 18 20 16 16 22 22 21 21 20 20 20 20 22 23 23
13 19 23 24 23 25 27 24 19 17 17 18 18 16 15 14 13 13 13 14 14 13 12 11 9 9 8 9 9 9 10 10 9 10 10 10 9 9 9 7 7 7 6 7 7 7 8 9 9 8 6 7 6 2 3 4 1 1 1 0 1 6 7 5 4 3 6 12 15 14 16 20 17 14 18 23 22 20 21 22 23 22 22 24 27
14 18 20 20 20 23 24 20 17 17 19 18 17 16 15 14 13 13 13 13 12 11 12 11 10 8 8 8 10 10 9 9 10 10 10 9 9 9 8 7 7 6 5 7 7 6 7 7 7 7 7 7 6 4 5 4 2 2 0 2 2 3 4 5 5 5 6 6 10 13 14 18 19 15 14 19 23 22 20 21 24 24 22 22 26
12 17 18 18 18 20 20 19 19 19 19 17 16 15 14 13 14 13 12 13 12 10 11 11 9 8 8 9 11 10 9 9 9 9 10 10 8 8 7 6 6 5 4 5 5 4 6 6 5 5 5 6 5 4 4 4 2 2 1 1 1 3 2 2 1 3 5 6 5 6 7 11 17 19 18 18 20 23 22 21 21 23 23 22 22
6 13 17 17 17 17 16 17 17 18 18 16 15 15 14 12 13 14 13 13 11 10 12 12 9 9 9 10 12 12 10 10 9 9 11 11 8 7 7 5 5 4 3 3 4 3 3 5 5 4 3 4 4 4 4 4 3 2 1 2 2 1 2 3 5 5 5 6 7 7 7 8 10 13 15 17 18 19 22 23 22 21 21 21 20
10 14 17 16 16 15 15 15 16 16 16 16 16 16 14 12 13 15 15 13 11 11 13 12 10 9 9 10 11 10 9 8 8 9 11 11 8 6 5 3 4 4 3 3 4 4 3 3 4 5 5 5 4 4 5 5 5 5 4 4 4 4 5 6 6 6 6 5 5 6 8 13 16 15 12 12 15 17 18 21 23 22 21 19 17
17 16 15 14 15 15 14 15 15 14 14 16 18 18 17 17 18 18 17 14 12 12 13 13 12 11 11 10 8 7 6 4 5 7 8 8 7 5 4 2 1 2 3 2 2 5 5 3 4 5 4 5 5 4 4 4 3 4 4 5 6 6 7 8 9 9 8 6 5 6 8 11 14 16 15 13 16 20 20 18 19 20 20 18 17
22 19 14 13 13 15 15 15 16 14 12 15 18 19 19 19 19 18 17 15 14 15 15 15 14 13 14 12 9 7 5 3 3 4 5 5 3 2 1 3 5 4 3 3 4 7 7 6 9 10 8 6 6 6 5 5 4 4 4 5 6 7 8 9 10 11 12 12 11 11 10 9 9 11 13 15 18 21 23 24 24 21 18 17 17
26 24 19 15 12 13 15 15 15 13 11 12 16 17 19 19 18 17 15 13 13 13 14 14 13 12 12 11 9 8 6 4 3 2 2 2 2 4 5 6 6 7 7 5 5 6 7 6 7 7 10 14 11 7 6 7 6 6 5 5 6 7 8 9 10 11 12 14 16 16 13 12 11 12 12 14 17 18 19 24 27 26 23 18 15
27 26 25 22 17 13 12 13 13 12 12 12 13 14 17 18 17 16 15 12 11 10 11 12 11 10 8 7 6 6 5 4 3 1 2 4 5 6 7 8 8 8 9 8 7 7 8 8 6 4 8 13 14 11 7 6 6 7 6 6 7 8 9 11 12 13 13 14 15 16 15 13 12 12 12 13 15 15 15 16 17 18 18 16 14
24 25 26 26 24 19 14 13 14 14 14 13 11 11 13 15 15 14 13 11 9 9 9 10 10 8 5 4 5 5 4 3 2 2 3 5 7 8 8 8 9 8 7 7 9 10 10 11 9 7 8 9 11 13 10 6 8 9 8 8 10 10 12 14 15 16 16 16 15 16 16 16 15 15 15 15 15 14 14 14 13 10 7 7 8
22 23 26 26 25 23 20 19 17 15 15 15 13 12 12 12 12 11 9 7 8 9 11 12 11 9 7 5 5 5 4 2 1 2 4 6 7 9 9 8 6 6 6 7 8 9 9 9 11 11 11 10 11 12 9 8 10 10 8 8 10 11 13 16 17 17 16 16 16 16 16 18 18 17 16 15 14 15 15 15 14 12 7 4 5
20 22 23 24 24 23 22 22 21 18 17 16 15 13 11 11 10 8 6 7 9 11 12 13 12 9 7 6 4 4 3 2 1 2 3 5 6 6 7 5 5 6 7 7 8 8 6 6 9 9 7 9 11 10 9 9 10 9 8 8 10 11 12 14 16 15 13 14 15 14 14 15 15 15 15 13 13 13 12 10 8 8 8 7 8
20 20 20 21 22 23 22 21 20 20 20 18 16 14 11 9 8 7 6 8 12 14 14 14 13 11 8 7 6 5 5 4 3 2 2 3 4 4 4 3 4 7 8 7 7 7 7 6 5 3 2 7 9 9 10 10 11 11 10 9 11 13 13 11 12 11 10 11 12 11 11 11 11 12 12 13 13 12 12 10 8 9 11 13 14
19 19 19 19 20 21 22 21 20 20 20 19 18 16 15 12 10 9 9 10 12 14 15 14 15 13 11 9 8 8 8 7 6 4 3 3 3 3 3 3 4 6 8 8 7 5 4 3 0 2 4 5 6 8 10 10 11 12 11 9 9 10 10 10 9 8 7 8 9 10 9 7 7 8 8 9 11 10 10 9 8 10 14 17 18
18 18 18 19 19 20 20 20 19 18 18 19 18 18 18 17 16 16 15 14 14 15 15 15 14 13 12 11 11 11 10 9 8 7 6 6 5 4 4 6 7 6 6 9 10 6 2 1 1 2 1 3 5 7 8 9 9 10 10 9 9 9 10 10 9 8 8 7 7 7 7 5 5 4 3 3 3 3 5 6 4 4 5 7 12
19 19 19 18 19 19 20 21 20 19 17 17 18 18 18 17 16 16 15 15 14 14 15 14 13 13 14 13 13 12 12 10 9 8 7 7 7 7 7 8 8 7 8 11 13 8 4 1 2 3 4 5 6 7 8 9 9 9 9 9 10 11 12 12 10 8 8 7 6 8 8 5 4 3 1 4 8 10 10 8 5 3 4 5 6
18 19 20 19 17 17 18 20 20 19 18 17 17 17 16 15 14 14 13 13 13 13 13 13 14 14 14 14 13 13 12 11 9 8 8 8 8 8 8 8 8 7 8 10 10 7 4 5 7 8 9 11 11 11 11 11 11 11 10 10 10 11 13 13 11 10 9 9 9 11 10 8 8 8 7 12 15 15 13 10 7 5 4 7 9
15 16 18 18 18 17 17 18 18 18 18 17 17 17 16 16 16 15 13 12 11 11 12 13 14 13 11 11 11 10 10 10 10 10 10 9 8 8 8 8 7 6 6 7 8 8 9 9 11 12 13 14 14 14 14 14 13 13 13 12 12 11 11 11 12 12 13 14 14 13 13 12 11 10 11 16 17 15 13 11 8 6 5 3 6
15 15 14 15 16 16 16 17 18 19 18 18 18 17 16 17 18 18 17 16 15 14 11 10 11 11 10 10 8 7 7 9 11 11 11 10 9 8 8 7 7 6 6 7 9 10 11 12 13 14 15 15 15 14 13 14 14 15 15 14 14 13 10 8 9 11 14 16 17 16 16 15 14 13 14 17 17 15 14 12 9 8 7 6 5
15 14 14 14 14 14 15 16 17 17 18 18 18 16 14 14 16 17 18 17 17 16 16 15 14 13 11 9 6 6 9 9 10 11 11 10 9 8 8 7 8 7 7 8 10 11 12 13 14 13 14 14 14 13 13 12 12 13 15 15 15 13 9 8 9 10 10 11 13 15 15 14 13 14 16 19 19 17 15 14 11 10 8 7 7
13 13 13 13 14 15 15 14 14 15 16 18 19 17 15 14 15 17 18 17 17 16 15 15 15 14 11 8 6 7 8 7 9 10 10 10 9 10 10 10 10 10 9 10 11 11 12 12 11 11 11 10 10 10 9 8 9 10 11 12 12 11 9 9 10 11 11 10 9 10 12 12 13 14 15 15 15 13 12 13 13 12 11 9 8
11 12 11 12 13 14 15 15 16 17 17 18 19 18 16 16 17 18 17 16 16 15 13 13 15 16 13 10 10 11 10 9 11 11 12 11 11 11 11 11 12 12 12 13 12 12 11 11 9 10 11 11 10 10 8 7 8 9 9 10 11 10 9 9 10 11 12 12 11 10 11 12 13 12 12 11 11 11 11 12 13 14 13 11 9
10 10 10 11 11 11 12 14 17 19 20 20 20 19 17 17 18 20 19 17 16 14 13 12 13 14 12 10 11 12 12 12 12 11 11 12 12 12 12 12 12 12 12 13 13 12 11 10 8 8 10 10 10 10 8 7 7 8 7 7 7 6 7 9 11 11 9 9 10 10 11 12 12 11 11 11 11 11 11 11 11 10 8 7 6
10 10 11 10 10 10 10 11 13 14 17 19 21 22 21 20 21 21 21 20 19 18 17 15 13 11 10 10 10 11 11 11 10 9 9 9 10 10 10 9 10 10 10 11 12 11 10 10 10 9 9 10 10 9 7 6 8 9 8 6 4 5 7 9 9 9 8 8 8 9 10 10 10 11 11 12 12 11 10 10 9 7 7 6 5
10 11 11 11 10 11 11 11 10 10 10 13 16 19 20 20 19 19 18 18 19 20 20 18 16 13 11 10 9 9 8 8 7 7 7 7 7 7 7 6 6 8 9 10 11 12 12 12 11 11 12 13 15 16 15 14 13 14 14 12 11 10 10 9 7 7 8 7 7 7 8 8 9 10 12 12 12 11 9 8 8 7 6 5 4
11 11 11 10 10 11 10 11 11 10 9 9 10 12 14 15 15 14 14 14 15 16 18 19 18 16 14 11 10 9 8 7 7 7 7 7 6 6 5 5 4 6 8 10 12 15 15 14 15 18 20 21 22 22 21 19 17 16 16 16 17 17 15 10 7 6 6 5 4 5 6 7 9 10 11 11 11 9 6 5 5 5 4 4 3
13 12 10 8 9 11 11 11 11 11 10 10 9 8 9 9 9 9 9 9 10 12 14 16 16 16 15 13 11 10 10 9 9 9 8 8 8 8 8 6 5 6 8 11 13 15 17 19 20 20 21 21 22 22 21 19 19 18 17 16 17 18 17 11 6 3 3 3 3 4 7 9 11 11 11 10 9 8 6 5 5 5 4 2 1
11 12 13 11 11 12 12 11 11 10 10 10 10 10 9 9 7 6 5 5 5 6 9 12 13 14 14 13 11 10 11 11 11 11 12 12 11 10 9 6 3 3 6 11 14 16 18 20 20 20 20 20 20 21 21 19 19 18 18 17 16 16 15 10 4 0 2 3 3 5 8 10 12 12 11 9 8 7 7 5 4 3 2 2 1
7 8 11 13 13 12 11 10 10 10 9 9 9 9 8 8 8 8 7 5 2 4 7 9 12 14 13 10 9 10 11 12 13 13 14 16 16 14 14 14 11 10 12 15 16 17 18 18 17 17 17 17 18 18 19 19 18 17 17 17 16 14 13 9 5 3 2 1 2 5 8 10 11 10 9 9 9 8 7 6 5 4 4 3 1
7 8 10 11 10 10 10 10 9 9 9 8 8 7 7 7 8 9 8 8 7 5 7 9 10 13 14 10 8 8 9 10 14 16 16 16 16 16 18 19 19 18 18 18 16 16 16 15 15 15 14 14 15 16 16 16 15 15 15 14 13 14 13 9 4 3 2 1 3 6 9 10 10 9 9 9 8 7 6 7 6 4 2 1 4
13 14 13 11 9 9 10 10 10 9 8 7 7 8 7 7 8 8 8 8 8 9 8 8 7 11 13 9 6 8 8 8 11 14 14 13 14 16 17 18 18 18 18 17 15 14 14 13 13 14 14 14 14 14 14 14 14 14 13 11 11 13 13 7 1 2 1 2 6 9 11 11 9 7 7 6 6 6 6 5 2 1 2 4 6
12 12 12 12 11 10 8 7 8 7 7 7 8 9 8 7 7 7 7 8 8 8 9 10 11 12 12 8 7 9 10 10 12 13 13 13 14 15 14 15 15 15 14 14 14 13 12 13 13 13 14 14 14 15 15 14 14 14 14 11 9 11 10 6 1 1 2 6 9 9 9 7 7 6 6 6 6 4 2 1 2 3 4 4 5
9 9 9 9 10 9 7 6 6 6 6 7 8 8 7 7 7 7 7 9 9 8 9 11 11 10 9 8 8 11 12 12 12 13 12 12 13 13 13 13 13 13 13 13 13 12 12 12 13 13 13 13 14 15 15 15 14 14 13 10 8 8 7 5 3 5 7 8 8 8 8 9 9 9 7 6 4 3 4 3 4 5 4 4 6
6 7 6 5 4 4 5 6 6 6 6 6 6 7 7 7 7 7 7 8 8 9 9 10 10 9 8 7 8 10 11 10 10 11 12 12 13 13 14 14 13 14 14 13 12 12 12 13 14 15 14 14 14 14 14 15 14 12 11 10 8 6 5 4 5 7 7 7 8 9 10 10 9 7 6 6 6 5 2 1 3 4 3 4 6
5 6 5 3 2 1 2 5 7 6 5 6 5 6 7 7 7 7 7 7 8 8 7 8 8 7 6 6 6 7 8 9 11 12 13 13 13 13 14 14 13 13 13 13 13 12 12 12 14 16 17 16 15 14 14 14 14 12 10 9 8 7 6 7 8 8 9 10 11 10 9 8 6 5 6 6 7 5 4 4 4 4 5 8 9
2 2 1 1 3 4 3 3 7 8 7 6 6 5 6 7 6 6 6 7 8 8 6 6 5 6 7 8 8 7 8 10 12 12 12 12 12 13 13 13 12 11 10 11 12 11 11 11 12 14 16 18 17 16 15 15 14 13 11 8 7 8 9 11 11 11 10 10 10 9 9 8 7 5 4 5 6 5 5 7 7 5 6 9 8
3 3 2 1 2 4 4 4 6 9 7 4 2 3 2 4 5 7 7 6 6 7 6 5 3 4 6 8 10 11 11 11 11 11 12 12 12 13 12 12 12 11 10 11 11 11 10 10 10 11 13 15 16 17 16 15 14 14 13 10 9 9 10 11 11 11 10 9 9 8 8 8 7 6 5 5 4 3 3 8 9 7 7 11 11
4 4 4 2 1 2 3 3 4 6 4 1 3 2 2 3 4 5 6 6 5 6 7 5 3 4 5 7 10 12 12 12 11 11 12 12 12 12 12 11 12 12 12 12 12 11 11 11 11 11 12 12 13 14 15 14 14 14 13 12 11 11 11 12 12 11 10 9 9 8 6 5 5 5 4 4 4 2 2 6 8 6 7 10 10
4 5 5 3 2 3 1 1 2 2 3 6 8 6 4 5 6 5 5 4 4 5 6 5 3 5 6 7 9 10 11 11 11 11 11 11 11 11 11 10 10 11 11 11 11 11 11 11 11 11 11 11 11 10 10 11 12 12 11 10 10 11 11 11 11 9 8 7 7 7 6 5 5 4 2 2 4 4 3 4 6 6 8 11 10
4 5 5 4 2 2 3 2 1 1 5 9 7 5 1 4 7 8 6 3 2 4 6 6 4 3 5 6 6 7 8 9 9 9 9 9 9 9 9 9 9 9 9 9 9 9 9 9 10 10 9 9 9 8 7 8 9 9 9 8 8 8 8 8 8 6 5 4 5 6 5 5 7 6 3 3 6 8 6 5 5 6 7 9 9
5 5 5 4 4 4 4 4 4 4 5 6 5 3 2 1 4 6 5 4 4 3 3 5 6 4 2 3 4 4 5 6 7 7 7 7 6 6 7 7 7 7 7 7 7 8 8 8 8 8 8 8 8 8 8 8 8 7 7 6 5 4 4 3 3 4 2 2 3 5 5 6 7 8 5 4 5 7 8 7 6 6 7 7 6
6 6 5 5 6 6 5 4 4 4 5 4 4 4 4 3 3 5 7 7 5 3 3 3 4 4 4 2 0 2 3 3 3 4 6 6 4 3 4 6 5 4 5 6 6 7 7 7 7 7 7 7 8 8 8 8 8 8 7 6 5 4 4 4 3 2 1 1 2 4 5 5 5 6 6 5 4 5 7 7 7 7 8 8 7
5 5 5 6 6 6 5 4 5 5 5 3 3 4 5 5 4 4 6 8 7 6 5 4 3 3 4 4 4 3 2 2 1 1 3 4 4 1 2 3 4 3 4 5 6 7 7 7 7 7 7 7 8 8 8 8 8 8 8 7 6 6 5 5 4 3 1 1 1 2 3 4 4 4 6 7 7 6 6 6 6 8 8 9 9
4 5 5 5 6 6 6 5 6 6 5 4 5 8 10 7 4 5 5 4 5 6 6 6 4 4 4 3 3 3 4 4 3 3 4 5 5 3 2 3 3 3 3 4 5 5 5 6 7 8 9 9 8 8 8 8 8 8 8 8 7 7 5 4 4 3 2 1 2 3 3 4 4 3 3 4 5 5 5 5 7 8 7 7 9
5 5 5 6 7 7 7 6 6 6 5 4 6 10 12 10 8 7 6 4 4 5 7 8 7 5 4 4 4 3 2 1 1 3 6 7 4 2 1 2 2 2 3 3 3 3 4 4 5 6 8 9 9 8 8 8 8 8 8 8 8 7 6 4 3 1 1 1 1 2 3 3 3 3 3 4 4 4 4 5 6 7 7 7 9
Wind_Direction
176 166 140 137 138 152 155 148 148 154 151 148 147 147 147 147 149 151 152 155 158 156 149 146 148 146 145 148 146 145 145 143 140 136 136 139 136 132 136 145 138 134 144 144 131 132 144 151 157 156 151 149 151 158 165 172 180 167 149 154 160 168 177 162 134 116 125 137 146 151 154 158 161 163 163 159 161 174 182 172 167 167 169 171 173
167 156 130 137 142 142 150 148 148 156 157 156 157 154 151 151 152 152 153 155 160 157 149 147 149 148 148 149 149 150 150 146 143 140 140 131 118 126 148 140 121 121 136 132 121 129 138 144 155 153 150 153 155 159 168 168 160 151 147 149 159 178 186 156 139 130 131 144 153 153 161 169 164 166 172 166 167 180 183 176 174 175 178 181 183
145 125 118 139 145 143 152 153 151 161 168 166 163 153 147 148 150 151 149 153 160 155 147 148 149 148 147 144 148 153 151 149 148 144 137 122 121 137 137 107 110 125 151 134 120 126 132 137 147 146 148 159 163 159 167 179 166 151 144 141 142 135 141 147 148 145 144 158 166 159 169 182 171 170 178 171 171 185 187 180 181 182 187 192 192
136 134 137 146 148 149 156 158 158 168 175 171 161 149 147 148 149 150 149 152 156 150 146 149 147 146 146 142 146 153 152 152 150 142 137 134 139 141 112 113 127 149 147 136 126 120 124 128 134 141 150 163 166 157 173 222 203 141 122 113 112 51 84 143 152 156 160 172 179 169 174 193 184 171 175 173 174 186 191 188 187 186 195 206 205
135 148 155 156 156 156 157 158 161 171 176 168 158 152 153 153 150 151 152 152 152 148 148 151 148 147 149 145 146 150 151 151 149 142 140 143 147 138 127 134 139 91 96 116 121 122 130 131 133 143 155 164 169 167 184 231 117 128 138 172 187 175 148 166 161 164 169 176 187 183 178 192 198 175 172 175 179 186 192 194 194 191 200 214 217
137 151 157 159 160 158 154 156 159 167 170 162 158 159 158 155 152 151 152 152 152 151 150 152 151 150 151 150 147 149 150 151 149 144 144 148 148 142 140 139 120 97 92 99 110 122 133 133 136 148 154 158 169 174 182 189 121 121 155 178 195 193 192 243 250 170 173 177 187 190 176 182 201 188 174 176 182 188 188 191 198 201 207 212 212
144 156 157 155 157 155 154 156 159 164 167 160 159 159 156 154 153 150 150 151 153 154 152 152 154 155 156 153 147 148 150 150 149 148 148 150 147 141 140 132 122 121 115 111 112 115 125 130 137 149 152 158 175 178 155 169 147 87 205 338 171 175 178 214 249 224 200 188 188 191 179 180 196 202 187 181 184 193 192 188 194 206 215 211 205
150 156 156 154 154 152 151 155 155 156 159 159 158 155 153 154 153 151 150 146 147 149 146 149 158 157 153 152 148 148 149 147 151 153 149 147 144 139 137 132 129 129 117 119 126 120 121 129 135 143 142 142 153 156 145 142 101 91 167 352 58 129 170 196 211 234 261 239 203 198 191 183 188 204 209 191 183 191 202 200 198 205 212 209 206
161 154 150 147 146 143 143 147 146 146 150 155 158 157 156 156 151 149 146 142 145 146 142 148 155 149 147 149 144 140 137 138 148 154 149 145 146 145 144 140 137 142 131 125 133 131 132 141 144 145 146 141 144 154 155 155 125 101 134 245 69 49 26 31 3 298 288 292 269 230 216 198 191 198 213 212 198 194 202 211 212 210 207 202 203
140 134 128 129 134 135 134 133 132 135 139 144 148 152 155 155 151 150 145 140 144 144 144 151 154 145 141 137 128 121 118 122 130 140 143 144 145 149 156 157 149 157 169 153 155 169 170 177 189 193 192 184 184 195 202 215 235 237 244 251 245 291 315 340 359 350 330 310 292 282 283 267 234 212 214 224 223 208 203 211 220 218 208 197 196
75 99 108 114 124 130 130 125 123 124 127 130 132 136 140 138 137 139 136 136 142 145 147 153 153 139 123 112 107 106 107 110 117 128 137 142 144 141 144 170 183 181 200 206 198 215 216 193 205 215 217 216 214 216 221 230 243 248 249 257 265 275 284 296 306 317 332 331 296 279 272 266 267 268 262 253 245 234 220 217 221 218 209 199 195
70 87 102 108 113 121 128 128 126 125 128 133 131 129 127 119 115 120 122 124 130 135 136 137 136 133 127 115 105 105 104 98 116 132 135 138 144 138 118 80 305 211 221 241 308 314 303 284 279 276 245 217 211 219 237 238 239 256 264 263 267 271 273 279 283 287 298 306 293 278 264 258 262 263 259 260 260 251 241 238 236 227 217 215 210
59 68 85 99 108 118 125 127 129 131 134 134 130 129 127 119 112 112 113 113 115 119 121 122 120 119 119 115 109 111 109 97 119 148 149 146 156 167 126 17 16 5 295 276 319 331 319 285 277 289 297 279 239 217 230 243 238 250 269 280 283 283 280 279 278 277 277 278 277 274 267 265 271 267 255 252 260 259 248 244 245 241 237 236 231
54 57 68 82 97 117 125 124 125 133 138 133 129 129 128 121 114 111 110 110 110 111 113 116 114 110 112 113 110 110 108 104 106 149 184 202 248 266 280 306 338 352 339 313 284 296 306 287 270 285 310 306 286 250 234 244 249 253 261 277 288 290 293 291 286 280 274 270 271 271 270 267 269 274 269 256 258 265 256 243 240 242 244 244 247
53 52 58 66 75 95 120 126 124 129 137 138 136 129 122 118 114 112 112 113 111 112 120 123 120 113 115 122 123 120 118 117 119 150 220 248 271 279 283 290 298 315 334 340 328 320 318 313 314 348 339 313 293 284 280 263 256 264 269 276 280 280 283 283 282 283 279 271 267 266 265 265 263 260 260 257 258 265 265 253 245 244 241 236 243
51 50 52 58 64 72 91 111 120 126 130 133 138 134 126 124 119 112 108 109 110 116 124 124 122 123 132 142 145 144 141 138 156 218 252 268 284 293 293 291 294 305 323 338 341 339 334 330 330 330 326 314 295 288 287 268 258 267 274 281 284 284 284 283 282 283 280 269 263 263 262 264 268 271 272 272 265 259 260 258 253 249 240 217 222
49 51 52 55 59 63 69 80 92 105 113 117 124 135 143 140 128 116 113 120 122 118 117 117 121 133 147 147 141 137 124 110 222 263 274 278 285 291 292 291 300 314 321 325 327 325 322 330 336 327 313 304 289 277 269 260 263 271 279 283 285 288 291 289 286 285 279 266 261 266 270 272 275 279 280 277 272 267 262 255 246 243 236 202 216
49 49 50 53 57 59 62 68 75 80 85 93 103 120 139 144 138 135 136 138 128 116 115 118 121 131 139 129 119 116 100 76 339 302 297 288 284 287 290 300 329 341 332 330 336 334 327 336 349 345 314 276 267 268 271 271 269 272 280 283 285 292 295 293 289 285 278 272 271 275 282 284 280 277 273 270 270 268 259 248 239 236 227 211 223
46 48 50 52 55 57 59 65 72 73 75 79 84 93 107 123 141 150 143 131 119 108 106 110 110 113 117 111 104 98 88 75 48 17 350 321 314 320 324 339 16 19 14 13 7 356 355 356 352 345 245 235 251 266 275 274 269 269 275 282 283 285 285 283 286 289 287 285 290 294 296 295 288 281 276 267 264 263 259 260 267 263 248 229 219
44 49 52 52 54 56 58 63 69 72 75 79 80 81 84 91 106 112 111 116 114 105 105 111 112 111 110 105 96 87 81 74 61 48 30 9 2 3 5 11 22 31 34 27 8 355 4 13 319 195 205 236 264 280 283 282 280 275 272 273 274 274 275 275 274 280 288 292 300 305 309 312 304 297 288 272 269 270 260 253 253 251 245 234 223
46 50 53 52 53 56 58 61 65 67 72 76 77 76 78 84 92 94 96 104 107 103 102 105 106 102 95 90 84 76 73 70 65 60 51 43 41 33 24 19 15 21 34 27 19 28 66 108 157 152 223 278 291 301 301 298 295 288 276 265 257 253 261 270 270 272 280 285 286 288 294 311 321 331 347 315 269 208 196 204 202 210 227 223 212
47 52 54 53 53 56 58 61 62 64 68 71 71 71 72 78 88 93 94 96 99 100 98 96 95 90 83 79 77 71 66 60 55 54 51 50 51 43 38 34 23 21 37 37 34 48 76 15 345 346 329 321 319 317 314 311 307 304 294 277 265 258 260 263 265 269 276 275 265 261 262 266 271 276 143 141 155 162 176 190 185 157 106 95 137
49 53 56 56 54 55 57 57 57 59 62 64 65 65 64 67 77 85 91 96 103 110 112 107 100 91 84 79 71 62 55 46 37 32 31 31 31 29 28 28 22 23 39 40 30 23 6 338 329 324 321 323 324 320 316 313 306 302 299 291 281 272 266 263 259 254 250 244 243 249 246 236 242 244 208 177 173 176 181 180 172 160 119 93 101
52 53 56 60 61 60 58 56 56 58 59 60 60 59 59 61 64 67 74 82 93 107 121 123 115 107 105 98 79 57 47 38 28 23 19 12 7 5 3 2 4 7 15 17 2 345 335 327 322 323 323 323 323 320 314 308 304 302 301 299 295 288 276 269 264 256 249 244 244 247 242 231 231 231 203 186 181 178 177 178 183 198 201 156 119
58 57 55 58 63 65 63 61 63 62 59 59 58 56 57 59 58 60 62 60 60 64 70 81 88 90 95 97 87 74 65 53 38 25 16 8 3 1 357 353 352 351 352 347 334 326 325 323 320 320 319 317 318 319 315 309 307 306 305 305 306 306 300 290 280 270 259 250 242 240 240 236 232 224 206 194 189 182 182 189 192 195 202 194 172
61 63 62 61 64 69 68 66 66 65 63 62 57 51 54 62 65 67 68 63 58 56 55 56 59 63 69 74 81 99 95 68 37 19 12 11 13 15 17 12 2 4 9 352 331 321 319 317 316 318 318 317 317 318 317 317 316 315 316 318 317 314 307 294 288 288 286 270 245 233 233 230 220 209 202 199 195 193 195 195 182 171 178 181 173
64 64 66 68 69 71 70 68 66 68 71 71 65 55 52 63 70 70 68 67 62 56 53 53 48 43 46 49 59 84 87 55 18 9 8 9 15 17 18 16 10 9 6 350 338 335 331 327 329 335 337 337 334 330 331 336 339 339 337 335 331 326 318 303 295 297 303 300 276 238 221 209 192 185 186 190 189 186 188 186 173 162 165 168 160
71 71 71 73 75 76 75 73 74 77 78 76 72 64 58 62 68 67 64 65 64 59 57 57 48 38 32 31 38 50 49 24 8 7 1 359 6 11 10 10 9 7 359 349 343 342 339 337 337 332 332 339 344 344 346 351 351 354 359 358 354 347 340 339 334 321 307 299 286 257 223 203 193 188 185 178 167 161 165 170 166 160 158 158 150
69 71 73 77 81 85 88 87 86 85 82 77 73 71 68 67 69 68 64 61 63 64 66 66 59 50 40 31 30 32 24 10 6 5 355 349 353 358 1 5 5 3 357 347 340 340 343 346 339 314 305 308 309 305 303 311 328 339 344 354 10 9 349 347 349 340 322 300 280 258 227 208 200 193 182 165 149 147 154 157 156 151 143 136 130
71 67 65 66 71 78 86 94 97 95 90 84 80 78 77 73 70 70 67 63 61 61 60 58 55 53 48 40 34 27 16 7 4 358 350 348 349 350 357 2 359 356 354 344 336 338 340 335 326 311 297 296 303 311 322 342 358 358 347 341 12 20 350 337 335 327 320 310 286 254 226 210 198 182 169 155 142 138 142 142 133 121 110 107 116
74 73 64 59 64 71 71 73 84 99 105 99 92 89 87 82 75 70 69 67 62 58 55 51 46 43 43 42 39 34 23 15 10 3 359 2 359 353 354 357 349 346 347 344 341 340 333 323 331 351 1 4 9 17 21 20 16 13 8 4 4 1 349 338 324 305 298 300 291 262 231 208 183 167 159 151 139 130 129 129 124 118 116 115 114
66 65 61 58 62 68 69 64 65 74 86 95 101 102 99 97 91 82 75 71 67 62 56 49 44 40 39 38 38 38 34 28 24 20 16 13 6 351 339 336 336 337 341 345 349 352 354 359 10 20 23 23 20 19 20 19 16 14 14 11 5 1 359 352 332 305 286 273 265 251 229 203 183 172 165 155 145 136 132 133 133 137 138 128 109
57 50 45 54 65 66 66 65 61 58 59 64 73 83 89 96 103 101 90 79 72 66 58 51 48 44 39 34 34 39 42 40 37 34 28 16 359 338 321 315 317 321 332 346 357 9 21 26 24 22 20 18 16 14 14 16 16 13 13 10 5 5 7 359 333 293 243 223 220 218 215 206 191 174 159 149 146 146 145 141 136 138 143 143 139
64 51 38 46 61 62 60 61 62 61 59 58 58 59 60 65 75 87 93 93 96 91 73 59 56 54 46 36 36 46 51 49 44 41 35 25 10 353 345 351 3 351 2 16 23 27 30 28 22 18 15 11 9 9 8 9 10 9 9 8 2 2 7 6 354 178 172 201 214 206 203 198 184 169 156 144 136 136 136 137 139 146 148 136 126
98 75 50 49 53 53 53 53 53 55 56 57 57 56 54 56 61 63 58 47 69 128 118 94 73 57 45 40 47 55 57 54 48 42 32 25 24 26 29 35 46 52 47 43 39 35 33 29 20 15 12 7 5 7 5 4 4 0 358 360 356 353 1 8 7 359 347 278 212 190 185 182 176 171 161 148 138 132 129 128 126 128 128 123 115
66 69 64 65 63 58 56 56 56 57 54 53 59 61 57 59 64 63 53 36 26 50 98 113 91 52 38 44 59 53 49 52 47 39 30 25 29 37 37 34 37 45 47 44 38 34 34 30 19 14 13 9 8 9 6 3 358 350 346 347 344 341 347 354 340 312 315 260 194 181 171 165 162 160 155 149 147 143 133 123 112 99 97 263 277
52 58 60 65 71 73 68 63 63 63 56 51 57 58 56 61 66 68 66 50 30 32 58 83 71 37 30 36 38 26 32 54 51 37 31 31 35 39 39 36 37 41 43 40 35 33 32 28 20 17 17 14 12 12 10 4 358 353 352 353 348 345 351 360 347 276 287 174 167 163 155 147 140 141 142 138 135 134 128 116 95 353 294 276 277
48 58 60 58 59 67 70 60 56 57 54 58 62 55 50 56 59 60 66 59 40 35 48 52 42 30 23 14 8 21 38 57 55 41 36 40 41 41 43 44 43 42 42 39 36 33 30 26 22 19 18 18 17 14 10 7 3 1 2 4 2 359 1 9 39 133 140 142 142 141 136 124 112 110 113 112 111 108 85 11 319 292 284 290 302
50 58 63 55 49 52 55 50 47 46 47 60 68 59 47 50 53 51 54 53 44 40 47 49 42 31 19 11 22 39 48 53 53 49 47 49 50 51 52 53 51 49 46 42 37 35 33 29 25 21 19 20 20 15 15 19 18 14 14 18 16 12 15 31 82 114 123 125 121 113 106 106 109 108 101 86 62 23 359 347 324 307 301 304 310
72 62 54 42 39 62 78 73 60 44 35 48 71 73 56 44 46 53 58 57 51 47 52 58 50 28 14 24 40 46 52 59 62 62 60 57 57 59 60 60 60 57 53 48 44 43 42 38 34 31 30 30 28 23 25 31 29 24 31 40 38 31 40 72 100 108 104 102 103 102 100 101 98 84 58 35 11 351 338 328 318 305 285 282 292
75 70 61 39 17 38 106 102 91 75 43 26 43 78 83 62 46 50 58 63 67 62 59 67 63 37 23 39 47 43 56 67 67 67 67 64 61 61 61 62 63 61 57 54 50 50 50 46 41 39 38 38 36 31 30 35 34 30 37 52 57 60 75 88 88 86 89 95 95 89 83 81 75 64 58 48 27 6 341 325 318 298 291 297 295
31 66 100 38 19 13 17 73 84 78 63 35 25 57 98 103 93 82 67 62 73 77 69 66 63 40 32 43 49 52 68 74 70 67 69 68 65 63 61 60 60 60 62 62 57 54 54 52 48 44 40 38 38 37 35 36 36 35 42 58 73 83 89 86 77 75 83 95 95 89 87 88 84 82 82 60 35 22 4 350 342 331 335 345 347
331 325 305 306 45 28 358 7 48 51 50 55 35 19 61 110 117 114 103 85 79 84 81 69 49 26 35 54 65 69 73 76 74 70 68 68 67 64 62 62 61 62 70 76 72 65 62 61 59 56 49 40 35 36 40 43 43 44 52 65 76 86 91 87 79 75 75 79 84 86 88 84 72 59 49 28 9 4 2 355 349 346 356 5 12
304 305 306 291 110 69 349 346 47 52 46 147 164 146 100 96 92 91 99 102 95 89 87 77 46 23 38 63 77 78 75 74 74 70 69 69 68 64 64 67 66 64 68 73 74 71 69 69 70 70 69 62 47 35 36 45 51 54 61 69 76 81 84 83 82 80 76 78 79 73 68 66 46 22 17 22 15 2 358 356 351 353 6 10 14
276 277 284 275 186 144 193 287 65 57 288 256 231 213 178 128 114 102 96 103 110 107 107 102 59 23 29 54 77 85 82 76 74 72 71 73 71 66 63 67 71 71 68 66 66 68 69 69 71 71 74 77 70 51 39 45 53 58 64 71 79 85 85 83 79 69 58 63 65 51 42 44 29 3 347 8 357 337 332 350 355 5 17 18 20
272 270 273 274 247 183 199 222 186 238 286 286 271 253 245 104 116 114 102 110 156 137 122 121 112 58 19 26 56 84 94 92 86 81 78 78 78 75 67 58 54 62 68 66 64 66 67 66 67 66 66 69 71 65 54 52 54 58 63 68 77 86 87 86 84 71 49 42 45 33 16 10 10 358 327 322 345 351 358 3 3 9 12 10 11
270 264 261 262 257 237 228 222 207 214 263 296 306 322 359 64 135 131 122 141 174 164 131 128 128 119 70 5 15 51 82 98 102 101 96 88 77 76 81 73 48 40 56 69 68 64 63 64 63 60 56 55 54 51 49 49 48 50 54 57 64 72 67 63 78 86 83 72 55 33 7 354 359 1 355 345 355 9 18 17 17 20 10 353 352
255 246 245 246 247 245 234 221 217 229 249 271 290 309 319 302 207 170 151 145 154 166 155 141 143 146 150 164 275 22 47 65 86 102 109 108 89 57 77 95 84 51 41 54 58 55 55 57 58 57 51 44 38 34 32 30 29 30 31 31 31 35 30 20 21 43 72 103 70 43 15 355 359 17 25 15 349 353 10 17 19 17 8 0 2
252 245 249 247 248 254 249 229 232 246 245 231 236 258 263 262 252 220 182 161 163 177 170 152 169 191 177 170 185 194 173 151 134 109 120 128 126 84 22 74 95 81 45 39 43 45 43 38 36 40 41 34 26 20 14 9 5 3 2 3 3 5 9 10 9 10 13 29 68 51 15 345 342 12 22 7 347 342 359 10 2 353 355 3 6
251 255 261 259 257 262 259 245 243 249 243 224 236 250 244 231 235 261 247 190 167 172 167 159 185 215 196 177 199 211 195 187 190 183 164 148 134 108 43 43 61 67 60 51 45 44 44 35 24 18 15 14 13 10 6 3 1 356 353 352 349 343 340 341 344 357 19 61 94 73 40 10 5 17 15 3 2 5 7 5 356 347 346 354 355
256 254 258 266 269 269 269 267 263 260 250 232 245 263 262 248 230 229 226 202 195 202 183 169 180 208 202 189 206 226 218 207 119 124 140 145 139 117 104 99 83 73 76 77 64 40 25 22 18 8 0 0 5 7 4 6 10 7 1 358 353 346 341 330 316 330 81 161 163 93 64 42 37 29 356 350 22 51 48 32 15 358 347 343 338
Height
779 783 785 788 791 793 794 795 796 799 800 801 803 804 805 807 809 811 813 814 816 817 818 819 820 821 822 823 824 825 826 826 827 827 827 828 829 830 830 831 831 832 833 833 834 835 836 837 838 839 839 840 841 842 842 843 844 845 845 846 847 849 850 851 853 855 857 859 860 862 863 865 866 867 869 870 871 872 873 874 875 876 876 877 878
781 782 783 787 792 795 797 797 798 801 802 803 804 805 806 808 809 811 812 814 815 816 817 818 819 820 821 823 824 825 826 826 827 827 827 828 828 829 830 830 831 832 833 834 834 835 836 838 839 839 840 841 841 842 843 843 844 845 845 846 848 849 850 850 852 854 857 859 860 861 863 865 865 866 868 869 870 871 872 873 874 875 876 876 877
786 786 784 785 790 794 796 797 799 801 803 804 805 806 807 808 810 811 812 814 815 816 817 818 819 820 821 822 823 824 825 826 826 827 827 828 828 829 830 830 831 832 833 834 835 836 837 838 839 839 841 842 842 843 843 843 844 845 845 847 848 849 849 850 851 853 856 858 859 860 862 864 865 865 867 868 869 870 871 872 873 874 875 875 876
786 788 787 785 787 790 794 795 798 801 804 805 805 806 808 809 810 811 812 813 815 816 817 818 819 820 821 822 823 824 825 826 826 827 827 828 829 829 830 831 832 833 833 834 835 837 838 839 840 841 842 842 843 844 844 844 844 845 846 847 848 849 850 851 851 852 855 857 859 860 861 863 864 864 866 868 869 870 870 872 873 873 874 874 875
785 786 786 785 786 789 793 796 798 801 804 805 806 807 808 808 809 810 811 813 814 816 817 818 819 819 820 821 822 823 824 825 826 827 828 828 829 830 831 832 832 833 833 834 836 837 838 840 841 842 843 843 844 845 845 845 845 846 847 848 849 850 851 852 852 852 853 855 857 859 860 862 863 863 864 867 869 870 870 871 871 872 873 873 873
785 785 786 787 788 790 793 796 798 801 803 804 805 807 807 808 809 810 811 812 814 815 816 818 819 819 820 821 822 823 824 825 826 827 828 829 829 830 831 832 833 834 834 835 837 838 839 840 841 843 844 844 845 845 846 846 847 847 848 849 850 850 851 851 852 853 854 854 856 857 858 860 862 862 862 864 866 868 868 869 870 870 871 871 871
785 785 786 788 790 791 793 796 798 799 801 803 804 806 807 808 809 810 811 812 813 815 816 817 819 820 821 821 822 824 825 826 827 828 829 829 830 831 832 833 834 835 836 837 838 839 840 841 842 843 844 845 845 846 846 847 848 848 849 849 850 850 851 851 851 853 854 854 855 856 857 858 859 861 861 862 863 865 866 867 867 868 868 869 869
784 785 786 788 790 791 793 796 797 798 800 802 803 804 806 807 809 810 811 812 813 814 815 817 819 820 821 822 823 825 826 827 828 829 830 830 831 832 833 834 835 836 837 837 838 840 840 841 842 843 844 844 845 846 847 847 848 848 849 849 849 850 851 851 852 852 853 854 854 854 855 856 857 859 860 860 861 862 863 864 864 865 865 866 866
785 785 785 787 789 790 792 795 796 798 800 801 803 804 805 807 808 810 811 812 814 814 816 818 819 820 821 823 824 825 826 827 828 829 830 831 832 833 834 835 836 837 838 838 839 840 841 842 842 843 843 844 845 846 847 847 848 849 849 849 850 850 850 851 852 852 852 853 853 854 854 855 856 857 858 858 858 859 860 861 862 862 862 862 863
785 785 786 787 789 790 792 794 796 797 799 800 802 803 805 807 808 810 812 813 814 815 817 818 820 821 822 823 824 825 826 827 828 829 830 831 833 834 835 836 836 838 839 839 840 841 842 842 842 843 844 844 845 846 846 847 848 848 849 850 850 850 851 851 852 852 852 853 853 853 853 854 855 856 856 856 857 857 858 859 859 860 860 860 860
786 787 788 789 790 791 793 795 797 799 799 800 801 803 805 806 808 810 812 813 815 816 817 819 820 821 822 823 824 825 827 828 829 829 830 832 833 834 835 837 837 838 839 841 842 842 843 843 843 843 843 844 845 845 846 847 847 848 849 849 850 850 851 851 852 852 853 853 853 853 853 853 854 855 856 856 856 856 856 856 857 857 858 857 858
789 790 791 792 792 793 794 796 798 800 801 801 802 803 805 806 807 809 811 814 815 816 818 819 820 821 823 824 825 826 828 829 829 830 831 832 833 835 836 837 838 839 840 841 843 844 844 844 845 845 844 844 845 845 845 846 846 847 848 849 849 850 850 851 851 852 852 853 853 853 853 853 854 855 855 855 856 856 855 855 855 855 855 855 855
792 792 793 794 795 795 796 797 798 801 803 804 803 804 805 807 809 810 812 815 816 817 818 819 821 822 823 824 826 827 829 829 830 831 832 833 834 835 836 838 839 840 841 841 843 845 845 845 846 847 847 846 845 844 844 845 845 846 847 848 849 849 850 850 850 851 851 852 852 852 853 854 853 853 853 853 855 856 854 854 853 853 853 853 853
796 795 795 796 797 798 798 798 800 803 806 807 806 806 807 808 811 813 814 817 818 819 820 821 822 823 824 826 828 829 830 830 831 832 833 834 835 836 837 838 839 841 842 842 843 845 846 847 847 848 849 849 848 845 844 844 845 845 846 847 848 848 848 849 849 849 850 850 850 851 851 852 852 851 851 852 853 853 852 851 850 850 851 851 852
800 799 798 798 799 800 801 801 803 805 807 809 810 810 810 810 813 815 817 819 821 822 822 823 824 825 826 828 829 830 831 831 832 833 834 835 836 837 838 838 839 841 842 843 844 845 845 847 847 846 847 849 849 847 845 844 845 845 845 846 847 847 847 847 847 848 848 848 849 849 849 849 849 849 850 850 850 850 850 849 849 849 849 849 851
804 803 802 801 802 803 804 804 806 807 809 810 811 812 813 814 816 818 819 821 823 824 824 824 825 827 828 829 830 831 832 832 832 834 834 835 836 837 838 838 839 840 842 843 843 843 843 845 845 845 845 847 847 846 845 845 845 845 845 845 846 846 846 846 846 846 846 846 847 847 847 847 848 847 848 848 848 848 848 848 847 848 848 849 849
808 807 806 806 806 806 807 807 807 809 810 811 812 813 815 817 818 819 821 823 824 825 825 825 827 828 829 830 831 831 832 832 833 834 834 835 836 837 838 838 839 840 841 842 841 841 842 842 842 843 844 846 847 846 845 844 844 844 845 845 845 845 845 845 845 845 845 845 845 845 845 845 845 845 846 846 846 845 846 846 845 846 847 848 849
812 810 810 810 810 810 810 810 810 811 811 812 814 815 817 818 819 820 822 824 825 825 825 826 827 829 830 831 831 831 832 833 833 834 834 835 836 837 838 838 839 840 840 840 840 840 840 841 841 843 844 845 846 845 843 843 843 843 844 844 844 844 845 844 843 843 844 844 843 843 843 843 843 843 844 844 844 844 843 844 844 845 846 847 849
815 814 814 813 813 813 813 813 813 813 813 814 815 817 818 819 820 821 823 824 825 825 826 827 829 830 830 831 832 832 833 833 834 834 835 836 837 837 838 838 839 840 840 840 840 840 840 841 842 843 844 845 845 844 842 842 842 843 843 843 843 843 843 843 842 842 842 842 842 841 841 841 841 841 842 842 842 842 842 843 844 845 846 846 847
818 818 817 816 816 816 816 816 816 816 816 816 817 819 820 820 821 822 824 825 826 827 828 829 830 831 832 832 833 833 834 834 835 836 836 837 837 838 838 838 839 839 840 840 840 840 841 842 843 843 844 844 844 843 843 842 842 842 842 842 842 842 842 842 842 841 841 841 840 840 839 839 839 839 840 840 841 841 841 841 842 843 844 844 844
820 820 820 819 819 819 818 819 819 819 820 820 820 821 822 822 822 824 825 826 827 829 830 831 832 833 833 834 834 835 835 836 836 837 837 837 838 838 838 839 839 839 840 840 841 841 841 842 842 843 843 844 844 843 843 842 841 841 841 841 841 841 841 841 841 840 840 840 839 839 838 838 838 838 838 838 839 839 840 840 841 841 842 842 842
823 822 822 822 822 822 822 821 822 822 823 824 823 823 824 824 825 825 827 828 829 830 832 832 833 835 835 835 836 837 837 838 838 838 838 839 839 839 839 839 839 840 840 840 840 841 841 842 842 843 843 843 843 843 842 841 840 840 839 839 839 839 839 839 839 839 838 838 838 838 838 837 837 837 837 837 837 837 838 839 839 840 841 841 841
825 825 825 825 825 825 825 824 824 825 825 826 826 825 825 826 827 827 828 829 830 831 832 833 834 835 836 837 838 838 839 840 840 840 840 840 840 840 840 840 840 840 840 841 841 842 842 842 842 842 842 842 842 841 841 840 839 839 838 838 838 837 837 837 836 836 836 836 836 836 835 836 836 836 837 836 835 835 836 837 838 839 840 841 842
828 828 828 828 828 828 828 828 828 828 828 828 828 827 828 828 828 829 829 830 831 832 833 834 834 835 836 838 839 840 841 841 841 841 842 842 842 842 841 842 842 842 842 842 842 842 842 841 841 841 841 840 840 839 839 838 838 838 837 837 836 836 835 835 834 834 834 834 834 833 833 833 834 835 835 835 834 835 835 836 837 838 839 841 842
830 830 830 830 830 831 831 831 831 830 830 831 831 831 831 830 830 830 830 831 832 833 834 835 835 836 838 839 840 841 842 842 842 842 843 843 843 843 843 843 842 842 843 842 842 842 841 841 841 840 840 839 839 838 838 837 837 837 836 836 835 835 834 834 834 834 833 833 832 832 831 831 832 832 832 832 833 834 834 835 836 837 839 840 841
832 832 833 833 833 833 833 833 833 833 833 833 834 834 834 833 832 832 832 833 834 835 836 836 837 838 839 841 842 843 843 843 843 843 844 844 844 843 843 843 843 843 843 842 842 841 840 840 840 840 839 838 838 837 837 837 836 836 835 835 834 834 834 834 834 834 833 832 832 831 831 831 831 831 831 830 831 832 833 833 834 836 838 839 840
835 835 835 835 835 835 835 835 835 835 835 835 836 837 837 836 835 835 835 835 836 837 838 838 839 840 841 842 843 844 843 843 844 844 844 845 844 844 844 843 843 843 842 842 841 841 840 840 839 839 839 838 838 837 837 836 836 836 835 834 834 833 833 833 833 833 833 832 832 832 832 832 832 832 832 832 831 832 832 833 833 834 836 838 840
837 837 837 837 837 837 837 837 837 837 838 838 838 839 839 839 839 838 839 839 839 839 840 841 842 843 843 843 844 844 845 845 845 845 845 845 845 844 844 843 843 842 842 842 841 841 840 839 839 839 839 838 838 837 836 836 835 835 835 834 833 833 833 833 833 833 833 833 833 833 833 832 833 833 833 834 834 834 834 834 834 834 835 837 839
838 838 838 838 839 839 839 839 839 839 840 840 840 841 842 842 842 842 842 842 842 842 843 843 844 845 845 845 845 846 846 846 845 846 845 845 845 845 844 844 843 843 842 842 841 840 840 839 839 839 838 838 837 836 836 835 835 835 835 834 833 833 833 834 834 833 833 833 833 834 833 833 833 833 834 834 835 835 836 836 836 836 837 838 840
840 840 840 840 840 840 840 841 841 841 842 842 842 843 844 845 845 845 845 845 845 845 845 846 847 847 847 847 847 847 848 847 847 847 847 846 846 845 845 844 844 843 843 842 841 840 840 839 839 839 838 838 837 836 836 836 836 836 835 835 834 834 833 833 833 833 834 834 834 834 834 834 834 834 834 835 836 836 837 837 837 838 839 840 841
841 841 841 841 841 842 842 842 843 843 843 844 844 845 846 846 847 847 847 847 847 847 847 848 848 848 849 849 849 849 849 849 848 848 847 847 846 846 845 845 844 843 843 842 841 841 840 840 839 839 839 839 838 838 837 837 836 836 836 835 835 834 834 833 833 833 833 834 834 835 836 836 835 835 835 836 836 837 838 838 839 840 841 841 843
842 842 843 843 843 843 844 844 844 845 845 846 846 846 846 847 848 848 848 848 848 849 849 849 849 849 850 850 850 850 850 850 849 849 848 848 847 846 846 845 844 844 844 843 842 842 841 840 840 839 840 840 840 840 839 838 837 837 836 836 836 835 834 834 833 833 833 833 834 835 836 836 836 836 836 837 837 838 839 840 840 841 842 843 844
843 844 844 844 844 845 845 846 846 847 847 847 848 848 848 848 848 848 849 849 849 849 850 850 850 851 851 851 851 851 851 850 850 849 849 848 847 846 845 845 845 844 844 844 844 844 843 842 841 841 841 842 842 841 840 840 839 838 838 837 836 836 836 835 834 833 833 833 834 835 835 836 837 836 837 838 838 839 840 841 842 843 843 844 844
845 845 845 845 846 846 847 848 848 848 849 849 849 849 849 849 849 849 849 849 850 850 851 851 852 852 852 852 852 852 851 851 850 850 849 848 848 846 845 845 844 844 845 845 845 845 844 844 844 844 844 843 843 843 842 841 840 840 839 838 838 837 837 836 835 834 834 834 835 835 836 837 837 837 838 838 839 840 841 842 843 844 844 844 845
847 848 847 848 848 849 849 850 850 850 850 850 850 850 850 850 850 851 851 851 851 851 852 852 853 853 853 853 853 852 852 851 850 850 849 848 847 846 845 844 845 846 846 847 847 846 846 846 846 846 846 846 845 844 843 842 842 841 840 840 839 838 838 837 836 836 836 835 835 836 837 838 838 839 839 839 840 842 842 843 843 844 844 845 845
848 849 849 850 851 851 851 851 852 852 852 852 852 852 852 852 852 853 853 853 853 852 853 853 854 854 854 854 853 853 852 852 851 851 850 849 848 847 846 846 847 847 847 848 848 849 849 849 849 849 848 848 847 846 845 844 843 842 841 841 840 839 838 838 837 837 836 836 836 837 838 839 839 840 840 841 842 843 843 844 844 844 844 845 845
850 850 850 851 852 853 853 854 854 854 854 854 854 854 854 854 854 854 854 854 854 854 854 854 854 855 855 854 853 853 852 852 852 852 851 851 850 849 849 849 849 849 850 851 851 851 851 851 851 850 850 849 848 848 847 846 845 844 843 842 841 840 839 838 838 838 837 837 837 838 839 840 841 842 843 843 843 844 844 845 845 845 845 845 845
852 852 853 853 854 855 855 856 856 856 856 856 856 855 855 855 855 855 855 855 855 854 855 855 855 856 856 855 854 853 853 853 853 853 853 853 852 852 852 852 852 852 853 853 853 853 853 853 852 852 851 850 849 849 848 847 845 844 843 843 842 841 840 839 839 839 839 839 839 840 841 842 843 844 844 845 845 846 846 846 846 846 846 846 845
855 855 855 855 856 857 857 857 857 857 857 857 857 857 857 856 856 856 856 856 856 856 856 856 857 857 857 856 855 854 854 854 854 854 854 854 854 854 854 854 854 855 855 855 855 854 854 854 853 853 852 851 850 849 848 847 846 845 844 843 842 842 841 841 841 840 841 841 841 842 843 843 844 845 846 846 847 847 847 847 847 846 846 846 846
856 856 857 858 858 858 858 858 858 858 858 858 858 858 858 858 857 857 857 857 858 858 858 858 859 859 858 857 856 856 856 856 856 856 856 856 856 856 856 856 856 856 856 856 856 855 855 855 854 854 853 852 851 850 849 848 847 846 845 844 844 843 843 843 843 843 843 843 843 844 844 844 845 846 847 847 847 847 848 848 847 847 846 846 845
857 858 859 859 859 858 858 858 858 858 858 858 858 858 859 859 859 859 859 859 859 859 860 860 860 860 859 858 858 857 857 857 857 857 857 858 858 857 857 857 857 857 857 857 857 857 857 856 856 855 854 853 852 851 850 849 848 847 846 846 846 845 845 845 845 845 845 845 845 845 846 846 847 847 848 848 848 848 848 848 847 847 847 846 845
858 859 859 859 859 859 859 859 859 859 859 859 859 859 859 860 860 860 861 860 861 861 862 862 861 861 860 859 859 858 858 858 859 859 859 859 859 859 859 859 859 858 858 858 858 858 858 857 857 856 855 854 853 852 851 850 849 848 848 847 847 847 847 847 847 847 847 847 847 847 847 848 848 848 848 848 848 848 848 848 847 847 847 846 845
859 859 859 859 860 860 860 860 860 860 860 861 861 861 860 860 860 861 861 862 862 862 863 863 862 861 861 860 859 859 859 860 860 860 860 860 860 860 860 860 860 859 859 859 859 859 858 858 857 857 856 856 855 854 852 851 850 850 849 849 848 848 848 848 848 848 849 849 849 849 849 849 849 849 849 849 849 849 848 848 847 847 847 846 845
860 860 860 860 860 861 861 862 861 861 862 862 862 861 861 861 861 861 862 862 863 863 863 864 863 861 861 861 860 860 861 861 861 861 861 861 861 861 861 861 861 861 860 860 859 859 859 858 858 857 857 857 856 855 854 853 852 851 851 850 850 850 850 850 850 850 850 850 850 850 850 849 850 850 850 849 849 849 848 848 847 847 847 847 846
861 861 861 861 861 861 862 862 862 863 863 862 861 861 860 860 861 862 862 863 863 863 864 864 863 862 862 861 861 861 862 862 862 862 862 862 862 862 862 862 862 861 861 861 860 860 859 859 858 858 857 857 857 856 855 854 853 853 852 852 852 851 851 851 851 851 851 851 851 851 851 850 850 850 850 849 849 849 848 848 848 848 847 847 847
861 861 861 861 861 862 862 863 863 863 863 861 860 860 860 860 860 861 862 863 863 863 863 864 864 863 862 862 862 862 862 862 863 863 863 863 863 863 863 863 863 862 862 861 861 861 860 860 859 858 858 858 857 857 856 855 854 854 853 853 853 853 852 852 852 852 852 852 852 852 851 851 851 850 850 849 849 849 849 848 848 848 848 848 848
861 861 861 861 861 861 862 862 862 863 862 862 861 860 860 860 860 860 861 862 862 862 862 863 863 864 864 863 863 863 863 863 863 863 863 863 864 864 864 864 863 863 862 862 862 861 861 860 860 859 859 858 858 857 856 856 855 855 854 854 854 853 853 853 852 852 852 852 852 852 852 852 851 851 850 850 850 849 849 849 849 848 848 848 848
860 861 861 861 861 861 861 861 861 862 862 862 861 861 860 860 859 859 859 860 861 862 862 862 863 864 864 864 864 863 863 864 864 863 863 863 863 863 864 864 864 863 863 862 862 862 861 861 860 860 859 859 858 858 857 857 856 855 855 854 854 854 853 853 853 852 852 852 852 852 851 851 851 851 851 850 850 850 850 849 849 849 849 849 849
860 860 860 860 860 860 860 860 861 861 861 861 861 861 860 859 859 858 858 859 859 861 861 862 863 863 863 863 864 864 863 864 864 864 863 863 863 863 863 863 864 863 863 862 862 862 861 861 861 860 859 859 859 858 857 857 856 855 855 854 854 853 853 853 853 852 852 852 852 852 851 851 851 851 851 850 850 850 850 850 850 849 849 849 849
859 859 859 859 859 859 859 859 860 860 860 860 860 859 859 858 858 858 857 857 858 859 860 861 863 863 863 863 863 863 863 863 863 863 863 862 862 863 863 863 863 863 863 863 863 862 862 861 861 860 859 859 858 858 857 857 856 855 855 854 854 853 853 852 852 852 852 852 852 851 851 851 851 851 850 850 850 850 850 850 850 850 850 850 849
858 859 859 859 859 858 858 858 858 858 858 859 859 858 857 857 857 857 856 857 858 858 859 860 861 862 862 862 862 862 862 862 862 862 862 862 862 862 863 863 863 863 863 863 863 862 862 862 861 860 860 859 858 858 857 857 856 855 855 854 853 853 852 852 852 852 852 852 852 851 851 851 851 851 851 851 851 851 850 850 851 851 850 850 850